Terminal Aerodrome Forecast
Issued by NWS

Home | Current Version | Previous Version | Text Only | Print | Product List | Glossary On
Versions: 1 2 3 4 5 6 7 8 9 10 11 12 13 14 15 16
000
FTUS45 KCYS 170520
TAFLAR
TAF
KLAR 170520Z 1706/1806 25010KT P6SM FEW250
     FM171600 23016G26KT P6SM FEW250
     FM180000 24009KT P6SM SCT250=

USA.gov is the U.S. government's official web portal to all federal, state and local government web resources and services.